Lapse_Rate
6.5 6.5 6.5 6.5 6.5 6.5 6.5 6.5 6.5 6.5 6.5 6.5 6.5 6.5 6.7 6.9 7.0 7.3 7.6 7.0 6.9 6.5 5.7 5.5 4.9 4.5 3.7 3.3 2.7 2.6 2.8 2.3 1.7 1.6 0.8 -0.1 -0.3 -1.5 -1.7 -2.2 -1.7 -1.2 4.3 4.2
6.5 6.5 6.5 6.5 6.5 6.5 6.5 6.5 6.5 6.5 6.5 6.5 6.8 6.9 6.8 6.9 6.9 7.1 7.5 7.3 6.7 6.1 5.5 4.8 5.0 5.5 3.7 2.7 2.4 2.2 1.9 2.3 2.7 2.7 1.9 1.0 0.4 -0.2 -0.9 -1.5 -2.4 -3.0 -2.3 -0.8
6.5 6.5 6.5 6.5 6.5 6.5 6.5 6.5 6.5 6.5 6.5 6.5 6.5 6.6 6.8 6.9 6.9 7.2 7.3 7.1 5.9 5.2 5.0 4.5 4.7 5.3 5.0 3.2 2.3 1.5 1.6 1.8 1.5 2.3 2.7 2.5 1.5 0.4 -0.4 -0.6 -1.0 -1.4 -2.9 -3.3
6.5 6.5 6.5 6.5 6.5 6.5 6.5 6.5 6.5 6.5 6.5 6.6 6.7 6.9 6.9 6.6 6.9 7.1 7.0 6.5 5.6 4.9 4.2 4.4 4.9 4.8 5.5 3.5 2.1 1.5 0.8 1.2 1.3 1.7 1.8 1.9 2.1 1.7 1.0 1.1 0.1 -0.3 -0.8 0.4
6.5 6.5 6.5 6.5 6.5 6.5 6.5 6.5 6.5 6.5 6.5 6.8 6.8 6.8 7.0 6.7 6.6 7.1 6.8 6.5 5.7 5.0 4.0 3.9 3.7 4.4 4.7 4.1 2.3 1.3 1.2 1.0 0.7 0.8 1.0 1.3 1.0 1.3 1.7 1.3 0.6 0.5 0.0 -0.4
6.5 6.5 6.5 6.5 6.5 7.0 6.7 6.5 6.7 6.7 6.6 6.6 6.8 6.5 6.5 5.8 5.3 5.1 5.5 5.8 5.0 4.4 3.6 3.0 3.0 3.6 4.0 5.2 5.4 2.7 2.1 1.5 0.9 0.5 0.4 0.6 1.2 1.1 1.3 1.5 1.6 1.2 0.7 0.0
6.5 6.5 6.5 6.5 6.7 7.1 6.5 6.5 6.9 6.8 6.7 6.8 6.5 6.3 6.1 4.8 3.8 4.3 4.9 5.1 4.8 4.4 3.6 3.2 2.7 3.0 3.4 4.2 4.8 5.1 3.8 2.4 1.5 1.6 1.6 1.4 1.7 1.3 1.0 1.2 1.3 1.6 1.3 1.0
6.5 6.5 6.5 6.8 6.7 6.5 6.6 6.6 7.0 6.3 6.7 6.6 6.3 6.2 5.7 4.3 4.5 4.9 4.3 4.4 4.7 4.0 3.6 2.9 2.5 2.8 3.4 3.6 5.4 5.0 4.1 3.0 2.2 2.0 2.3 2.0 1.7 1.6 1.7 1.5 1.6 1.7 2.5 2.2
6.5 6.5 6.7 7.0 6.8 6.7 5.3 5.5 5.8 6.3 6.1 6.0 6.2 6.3 6.0 5.6 5.2 4.7 4.2 3.7 4.0 3.4 3.2 2.8 2.5 2.6 2.8 3.5 5.0 5.1 4.8 4.1 3.0 2.5 2.2 2.5 2.2 2.2 2.3 2.3 2.7 3.5 3.4 3.2
6.5 6.5 6.7 6.8 6.1 5.8 5.2 4.7 4.9 5.1 5.0 5.1 5.2 5.8 5.2 5.0 4.6 3.8 3.1 3.0 3.1 2.9 2.6 2.7 2.9 3.3 3.2 3.4 4.7 5.1 4.7 4.6 4.5 3.2 3.1 2.6 3.2 4.0 3.5 4.1 4.4 4.3 4.1 3.9
6.5 6.6 6.9 6.8 5.9 5.6 5.6 5.8 5.3 5.2 5.0 4.8 4.6 4.7 4.8 4.7 4.5 4.1 3.4 3.2 3.3 3.2 3.3 2.9 2.9 2.8 2.4 2.9 4.6 5.4 5.5 5.1 4.9 5.1 4.3 4.1 4.0 4.1 4.8 5.2 5.7 5.2 5.0 4.8
6.5 6.1 6.3 6.5 5.7 5.6 5.4 5.5 5.3 4.5 4.9 5.3 5.0 4.6 4.7 4.3 4.6 3.9 3.5 3.3 2.8 3.1 3.0 2.6 2.6 2.4 2.2 2.8 4.8 4.8 5.2 5.3 5.3 5.1 4.3 4.1 3.5 3.8 4.8 5.3 5.4 5.4 5.5 5.0
6.1 6.0 5.1 5.7 4.9 5.1 4.6 5.1 5.3 5.0 4.9 4.4 4.8 4.5 4.6 4.0 4.3 4.4 3.5 3.3 2.8 2.9 2.7 2.4 2.1 1.6 1.3 2.7 4.5 4.8 4.5 4.7 4.2 4.2 3.9 3.5 2.8 2.4 1.3 3.1 4.9 4.8 4.7 5.1
5.8 5.9 6.5 6.0 5.1 5.0 4.4 4.5 4.6 4.2 4.8 5.0 4.8 4.7 4.3 3.9 3.8 3.2 2.8 3.5 3.3 2.2 1.6 1.6 1.6 0.8 0.9 2.2 3.4 3.2 2.3 2.0 1.7 2.8 1.9 0.5 -0.6 -0.3 -0.1 1.4 1.0 1.2 2.9 4.0
6.3 5.4 4.9 4.5 4.4 4.2 4.1 4.1 4.3 4.6 4.7 4.4 4.6 4.0 3.8 2.9 2.5 2.2 2.6 3.2 3.0 2.0 0.8 0.3 0.4 -0.3 0.3 1.8 2.7 2.8 3.3 2.9 1.7 0.9 1.0 0.8 0.8 0.8 0.9 1.7 2.1 2.3 2.4 2.1
5.2 4.5 4.0 4.0 3.8 4.0 4.2 4.3 4.1 4.1 4.1 4.1 3.7 3.4 3.0 2.5 2.0 1.6 1.8 1.4 1.1 -0.5 -0.1 -2.0 -0.3 -1.1 0.1 0.6 1.4 2.4 1.8 2.2 1.5 1.4 1.4 1.5 0.8 1.4 1.7 1.8 2.1 1.9 1.9 1.7
4.6 5.4 4.7 4.4 4.2 4.1 4.3 4.2 4.0 3.3 3.4 3.1 2.4 2.5 2.5 2.4 2.0 1.4 0.4 1.0 -0.2 -1.1 0.3 -0.8 -2.8 -1.8 -0.9 -0.7 -0.3 0.7 0.8 1.4 1.2 2.0 1.3 2.0 1.2 1.5 1.4 1.4 1.6 1.8 0.9 -0.2
4.4 4.5 4.4 3.9 3.6 3.4 3.4 3.6 3.3 2.5 1.4 0.9 -0.1 -1.7 -3.1 -1.9 -0.9 -1.8 -3.0 -1.9 -0.8 -0.7 -1.9 -4.4 -4.4 -2.9 -2.1 -1.4 -0.4 0.7 0.8 1.6 2.2 1.9 2.1 1.6 3.4 4.3 2.8 0.6 1.2 1.7 0.6 2.3
3.9 3.0 2.9 3.4 3.1 3.1 2.7 1.8 1.1 0.6 -1.3 -2.5 -3.1 -4.5 -5.4 -5.8 -4.0 -5.0 -6.9 -5.3 -4.7 -3.1 -2.3 -4.7 -0.2 -2.2 -1.6 0.2 1.2 0.6 0.5 0.8 2.3 3.4 3.3 2.3 1.4 2.8 1.9 0.4 0.1 -0.8 1.2 1.9
2.3 2.6 2.3 1.9 2.2 2.0 0.8 0.2 -0.5 -1.3 -3.1 -4.1 -6.3 -6.6 -4.3 -5.4 -7.7 -7.2 -7.0 -2.3 -3.0 -2.3 -5.4 -3.4 -2.0 -0.4 0.5 1.6 0.7 1.7 0.3 -0.2 2.5 2.4 2.5 3.5 1.3 0.2 0.4 2.4 2.2 -0.1 -1.9 -1.0
0.5 0.4 0.1 -0.3 -1.6 -2.3 -2.5 -3.1 -3.2 -4.0 -7.9 -8.6 -5.6 -6.0 -5.3 -7.3 -8.4 -8.3 -3.0 -0.8 -1.2 -3.3 -1.2 -0.2 0.0 0.8 1.9 1.4 2.3 -0.1 -1.3 -1.0 -0.5 0.7 -0.4 -0.2 1.6 2.8 -0.0 -1.3 -0.3 -0.7 0.6 2.0
-2.0 -1.8 -2.9 -3.5 -3.0 -5.7 -7.5 -6.9 -5.2 -6.5 -7.6 -8.6 -10.0 -9.6 -6.7 -3.8 -5.9 -5.5 -4.1 0.0 0.2 -0.8 1.1 1.5 1.5 1.4 1.7 0.5 2.6 -0.7 1.7 0.7 0.2 -0.0 0.3 -0.9 -1.9 -1.6 0.7 0.7 0.0 -0.8 -0.7 0.7
-2.6 -2.6 -3.3 -3.5 -2.8 -3.5 -6.8 -6.7 -8.0 -6.5 -6.7 -7.5 -6.4 -6.4 -4.3 -1.5 -1.4 -0.4 1.3 1.4 1.1 1.0 2.0 1.6 2.0 1.5 0.9 -1.5 -2.6 -3.2 -2.8 -2.4 -1.8 -1.8 -2.3 -3.3 -1.9 -0.9 -0.1 2.6 0.1 -2.6 -2.3 -0.9
-3.3 -2.5 -3.8 -3.7 -3.0 -2.0 -1.9 -4.5 -4.1 -3.6 -6.2 -4.5 -3.9 -3.8 -1.0 -0.9 -0.9 1.7 2.4 1.0 -0.7 -0.8 -1.6 0.0 0.2 1.9 1.1 -3.2 -3.1 -3.4 -3.3 -3.1 -3.3 -3.7 -1.0 -2.1 -4.2 -3.6 -0.1 0.9 2.1 -1.4 -2.6 -2.7
-2.4 -3.2 -3.4 -3.3 -1.6 -1.1 -1.3 -2.2 -1.9 -1.6 0.4 1.8 2.2 2.9 1.1 1.8 1.9 2.0 0.3 0.4 0.1 0.7 0.6 2.1 1.4 0.7 -2.1 -4.7 -3.9 -3.5 -2.9 -3.7 -2.2 -3.9 -2.5 -3.5 -2.5 -3.1 -2.6 -0.8 2.0 -0.9 -2.7 -3.9
-1.2 -1.1 -1.6 -1.1 -0.2 -0.0 0.2 0.5 0.3 1.0 1.7 0.9 0.9 -0.9 -0.7 -0.3 1.7 2.1 2.6 0.9 0.1 1.3 0.8 0.5 -1.1 -1.8 -3.4 -2.9 -2.1 -1.6 -1.1 0.2 -0.6 -1.0 0.1 1.5 1.2 -0.6 -2.1 0.0 0.7 -0.4 -0.6 0.6
-0.4 -0.3 0.1 0.2 0.9 1.2 1.1 1.2 0.5 0.8 0.5 -1.5 -0.2 -1.2 -1.1 -2.6 -0.7 1.4 0.6 -1.6 -1.8 -1.5 -0.7 -1.0 -1.6 -1.4 0.4 1.0 0.5 1.2 1.6 0.7 0.7 1.2 1.9 1.0 1.0 0.9 -0.3 0.9 2.2 3.4 3.6 3.5
Wind_Speed
5 17 14 17 11 10 12 7 4 4 5 8 10 10 11 10 12 17 18 19 17 16 16 16 17 17 16 16 16 16 16 17 17 16 16 16 16 16 14 14 13 16 7 9
3 3 13 20 21 17 16 13 11 11 7 6 6 7 11 12 14 16 16 17 17 17 18 18 18 15 17 17 16 15 16 16 16 17 17 17 17 17 16 15 15 16 16 16
3 11 5 8 15 15 15 16 5 5 4 4 8 13 14 13 13 15 16 15 16 16 15 16 16 15 15 16 15 16 16 16 17 16 16 16 16 17 18 17 15 15 16 16
3 2 5 1 7 9 18 13 10 9 6 6 11 12 12 13 12 12 14 16 14 12 13 13 13 14 12 16 15 16 17 16 16 16 15 15 16 17 17 15 16 14 15 14
2 4 3 2 6 5 5 8 10 5 5 4 5 5 12 12 11 11 11 11 10 11 11 13 15 14 15 14 17 16 17 16 16 15 16 15 16 15 14 13 14 14 13 16
1 2 2 2 9 6 7 3 8 7 6 4 5 3 2 9 10 10 11 10 11 12 11 13 14 13 14 14 13 16 14 14 14 15 16 15 13 13 11 10 11 11 14 16
4 3 3 7 11 3 2 1 7 7 7 9 6 4 4 6 8 8 10 12 10 10 11 13 13 13 14 14 15 11 12 11 12 15 13 14 13 12 12 12 12 13 13 14
2 2 1 12 2 2 5 5 7 5 7 10 8 8 8 6 7 9 10 11 11 9 10 12 12 12 13 13 13 13 9 12 12 13 12 12 15 13 13 13 13 13 13 12
4 2 3 6 9 7 5 4 2 6 7 8 7 7 6 6 7 8 10 9 10 10 11 11 12 12 13 12 12 12 12 12 13 12 12 13 15 14 12 14 12 12 10 10
3 3 5 5 7 6 6 6 6 7 7 7 8 7 7 7 7 8 9 10 10 10 11 12 12 13 11 13 13 13 13 13 12 12 12 11 10 10 11 11 11 10 10 10
4 7 8 5 5 7 8 8 10 8 7 7 8 7 6 6 7 7 7 7 7 8 9 10 10 11 12 13 14 12 12 12 13 9 10 9 8 9 9 11 13 9 9 8
3 8 3 5 6 7 8 7 7 9 8 7 6 6 5 5 4 4 6 6 7 8 8 9 9 10 11 12 13 12 12 10 9 8 6 7 7 7 13 15 20 22 22 14
4 3 6 10 7 4 9 7 8 9 8 8 5 6 6 5 5 7 5 6 7 8 9 8 9 10 11 11 11 11 10 10 6 7 6 6 6 6 6 7 13 18 21 21
12 12 7 7 4 7 11 9 10 8 7 7 7 6 6 6 6 6 6 5 6 7 9 9 9 10 11 11 11 9 7 7 5 4 4 4 4 3 3 5 5 6 10 16
3 4 6 10 11 8 9 9 8 7 6 6 5 6 6 6 6 6 5 6 7 7 8 8 8 9 10 10 9 8 7 6 5 4 3 3 3 4 4 4 4 5 6 7
8 10 10 11 10 9 8 7 7 6 5 5 5 6 6 6 5 4 4 5 5 6 7 7 8 9 10 9 9 7 6 8 5 4 4 4 4 4 4 4 4 4 5 6
10 6 7 8 8 7 5 4 5 5 5 4 4 4 4 5 5 5 4 4 4 3 5 6 6 7 7 6 6 5 4 4 6 4 5 3 2 3 2 3 3 3 3 3
4 5 7 9 10 8 7 7 6 6 4 5 5 4 4 4 3 1 2 4 4 4 4 5 5 5 5 5 5 4 4 4 4 3 3 4 4 3 3 3 3 3 3 3
5 8 8 10 9 9 8 7 5 5 6 5 5 4 3 2 1 1 2 3 4 3 4 5 8 6 5 7 6 4 4 5 5 4 4 4 4 3 3 3 2 2 3 3
8 8 10 9 8 7 8 5 6 6 4 5 5 4 2 2 1 1 0 1 3 3 3 5 4 5 5 8 8 4 4 4 4 4 4 3 3 3 3 4 3 3 3 2
8 8 8 8 6 5 6 5 6 6 3 4 5 4 4 3 2 2 1 2 4 3 3 3 2 3 4 6 5 3 3 4 3 3 3 3 4 4 3 3 3 3 3 2
4 7 7 7 7 5 3 4 5 5 4 4 2 2 1 2 0 2 5 4 2 2 2 2 1 4 4 6 2 3 3 3 2 3 3 3 3 3 3 3 3 3 2 2
5 6 6 7 7 7 4 3 4 4 4 4 4 4 3 2 2 2 2 3 3 3 2 2 5 5 4 2 2 2 3 3 3 2 3 2 3 3 2 3 3 2 3 3
5 5 5 5 6 5 6 4 4 4 3 3 5 5 4 2 3 4 3 3 4 3 3 4 5 7 4 1 2 2 3 3 3 3 3 4 3 3 3 2 3 3 3 3
5 5 5 6 6 4 4 5 4 3 4 5 5 5 7 5 4 2 2 3 4 3 3 7 8 9 4 2 3 3 3 3 4 3 3 3 3 3 4 3 3 3 3 2
8 6 5 4 2 3 3 4 3 3 3 3 3 3 3 3 3 3 3 4 3 4 3 2 5 6 3 2 3 4 4 4 3 4 4 3 3 4 4 4 2 4 6 9
4 5 4 2 2 3 3 3 3 3 3 3 3 2 2 2 2 3 3 3 3 3 3 3 6 6 5 4 3 5 6 7 9 6 7 6 5 5 6 7 9 10 11 10
Wind_Direction
74 32 22 47 37 70 75 43 67 78 72 32 26 19 17 15 34 27 23 20 17 17 16 14 18 18 13 12 12 6 13 16 15 6 10 10 7 13 11 18 5 4 266 222
328 81 39 41 32 48 73 75 87 103 84 53 43 34 29 23 39 34 25 18 12 13 12 14 12 11 13 13 8 8 14 13 9 12 15 15 12 15 18 16 26 21 14 15
343 333 337 29 18 41 55 44 47 65 67 86 61 47 32 20 33 30 27 17 12 11 7 11 6 3 22 10 8 15 14 11 10 8 13 16 15 16 20 19 22 27 30 21
190 265 43 278 22 70 64 46 70 90 100 103 96 68 43 27 39 28 25 17 12 7 5 3 3 8 14 20 17 17 16 9 9 9 9 10 18 20 17 18 22 22 28 20
117 56 116 43 19 347 7 54 32 49 168 168 174 99 47 32 35 32 28 22 16 7 4 2 6 5 15 22 19 20 15 9 6 6 9 12 16 14 17 21 21 22 23 19
86 103 151 60 325 317 302 67 36 37 17 2 221 53 46 14 24 25 29 24 20 13 10 13 7 12 17 15 22 21 8 1 6 9 13 10 11 16 16 23 29 30 30 28
21 99 94 345 316 275 284 80 67 60 45 50 80 80 95 42 29 22 24 20 19 20 22 14 9 13 17 13 14 13 6 6 13 20 18 14 9 17 18 22 28 26 29 28
340 71 90 350 351 61 99 54 99 82 80 92 93 85 70 49 38 29 22 21 18 20 22 17 13 19 19 10 5 7 5 14 16 19 24 22 22 21 23 24 25 26 22 26
19 91 52 12 58 61 70 89 39 102 100 104 96 85 73 60 43 29 22 16 16 20 18 16 12 20 16 360 3 14 18 18 19 23 21 23 30 25 26 27 29 26 23 24
164 141 113 81 65 64 65 75 74 80 90 90 99 86 75 56 40 33 22 20 12 17 19 14 6 9 5 6 6 19 21 18 22 20 21 24 28 29 29 26 30 26 24 24
84 119 113 82 101 106 84 82 78 65 61 74 76 59 59 50 41 35 30 15 19 22 22 9 1 3 1 6 15 20 22 22 21 22 18 17 25 28 32 31 35 30 24 18
217 162 128 136 145 131 116 112 107 104 82 69 98 105 94 74 57 39 36 25 22 23 18 5 5 5 358 2 17 21 24 20 20 20 14 17 14 9 27 39 39 36 33 33
135 99 112 125 112 107 115 115 109 112 116 115 98 105 101 88 75 62 48 47 32 27 21 8 10 8 359 358 10 22 26 20 11 17 19 24 22 21 9 357 29 33 34 27
113 108 92 148 153 124 116 110 107 98 100 105 107 101 105 103 85 63 49 35 48 30 24 12 10 6 351 351 3 6 7 11 17 5 12 19 22 20 22 27 7 2 7 26
101 89 124 117 115 117 121 126 115 115 114 97 94 100 97 90 76 68 37 41 36 39 23 12 7 356 345 350 356 357 4 6 0 358 8 22 22 27 24 25 23 13 5 11
102 107 120 130 136 136 135 123 129 135 122 119 110 98 100 99 88 67 40 37 37 25 11 6 3 343 344 354 354 2 1 359 7 2 358 14 25 33 27 25 25 20 21 6
128 137 134 144 151 149 141 128 133 139 137 133 108 108 124 114 91 69 39 21 45 25 18 9 326 334 344 348 355 351 348 355 354 5 12 356 19 39 21 35 31 27 10 346
130 139 159 156 152 143 139 141 141 143 139 119 101 107 93 96 115 29 341 348 20 13 8 334 315 347 348 346 0 355 357 350 359 354 354 6 1 18 28 36 28 33 351 14
133 134 128 134 140 141 145 139 129 119 115 131 127 129 135 159 208 252 316 45 36 17 308 339 345 356 352 347 16 4 7 5 1 358 359 6 13 11 27 27 17 14 18 31
111 113 118 120 123 133 131 121 132 124 118 119 119 120 139 269 290 344 18 274 234 229 296 315 338 351 346 355 9 8 9 7 0 352 0 0 8 3 355 22 24 16 11 15
130 126 125 122 115 101 117 132 135 150 168 140 145 168 192 270 265 169 59 353 280 259 275 318 353 338 344 350 358 9 7 356 4 358 354 344 353 2 357 358 355 360 339 345
124 126 128 128 131 117 116 128 124 129 139 135 104 119 93 307 251 259 235 224 273 292 311 299 291 339 344 336 2 354 353 358 343 341 351 350 349 340 331 336 342 334 334 318
126 130 133 142 145 146 133 134 143 143 156 179 194 198 202 227 191 151 298 244 235 248 270 277 278 297 331 359 0 347 332 320 306 299 292 297 290 287 287 312 303 305 314 314
129 134 131 134 131 138 156 197 175 177 186 212 224 213 209 224 284 231 237 254 250 244 257 271 283 286 290 277 290 299 295 288 279 280 279 276 272 287 281 283 296 296 292 292
137 131 133 148 163 181 150 164 162 191 215 237 239 227 220 218 204 235 204 239 248 244 265 282 289 291 285 244 257 261 264 257 266 258 269 263 274 275 274 264 257 260 268 263
157 165 169 178 165 155 161 163 175 188 192 242 263 243 257 245 217 221 233 249 242 249 249 265 285 286 276 244 260 259 259 268 267 275 263 269 267 267 264 267 253 253 256 265
126 137 142 141 168 169 178 185 174 234 200 189 234 276 258 273 242 232 226 251 247 252 256 275 289 288 277 267 267 270 268 266 264 259 264 261 256 259 265 269 278 279 277 267